User: anonymous   Login
Location: Unspecified
(0.0000°N, 0.0000°E)
Time: 07:36:43
(UTC+01:00)
Language:

OPAL - Orbit

View from above orbital plane
View from above orbital plane
View from above satellite
View from above satellite

Ground track
Ground track

The orbit data is extracted from the following two-line orbital elements,

1 26063U 00004C   17324.56845893 +.00000003 +00000-0 +21052-4 0  9993
2 26063 100.2201 357.2701 0036027 227.2088 132.6061 14.36681549933637
Epoch (UTC): 20 November 2017 13:38:34
Eccentricity: 0.0036027
inclination: 100.2201°
perigee height: 744 km
apogee height: 795 km
right ascension of ascending node: 357.2701°
argument of perigee: 227.2088°
revolutions per day: 14.36681549
mean anomaly at epoch: 132.6061°
orbit number at epoch: 93363

The dashed part of the orbit path shows where the satellite is in the earth's shadow,  

DLR